Location: Hawaiian Village Mobile Home Park
(32.8359°N, 116.9792°W)
Time: 03:10:37
(UTC+00:00)

ADEOS - Pass Details

Date: 02 December 2021
Orbit: 792 x 795 km, 98.9° (Epoch: 23 January)

Event Time Altitude Azimuth Distance (km) Brightness Sun altitude
Rises 12:09:05 0° 33° (NNE) 3,298 7.1 -29.8°
Reaches altitude 10° 12:12:08 10° 51° (NE) 2,364 6.5 -29.1°
Maximum altitude 12:15:42 19° 95° (E) 1,830 6.2 -28.4°
Drops below altitude 10° 12:19:16 10° 139° (SE) 2,353 6.6 -27.6°
Sets 12:22:16 0° 157° (SSE) 3,277 7.2 -27.0°
